Lexington Weather

Lexington, Massachusetts, USA

42°F
4/22/2024 8:28am 
  • Lexington Conditions: Clear
  • Temperature: 42.3°F / 5.7°CWarmer 3.8°F than last hour.
  • Dew Point: 27.3°FDecreased 2.5°Fsince last hour.
  • Relative Humidity: 55%Decreased 16.0% since last hour.
  • Wind: Calm, 10-min avg: Calm, gust: None
  • Barometer: 29.95 in Steady
  • Visibility: 10 miles
  • Rain Today: 0.00 in
  •   

Regional Weather Roundup
for Boston, MA

        
000
ASUS41 KBOX 211110
RWRBOX

REGIONAL WEATHER ROUNDUP
NATIONAL WEATHER SERVICE BOSTON/NORTON MA
700 AM EDT SUN APR 21 2024

NOTE:  "FAIR" INDICATES FEW OR NO CLOUDS BELOW 12,000 FEET WITH NO 
SIGNIFICANT WEATHER AND/OR OBSTRUCTIONS TO VISIBILITY.

MAZALL-211200-
EASTERN MASSACHUSETTS
  
CITY           SKY/WX    TMP DP  RH WIND       PRES   REMARKS
BOSTON         FAIR      42  27  55 W12       29.98R                  
BEVERLY        FAIR      39  27  62 W5        29.96R                  
LAWRENCE       FAIR      39  27  62 W5        29.98R                  
BEDFORD        FAIR      36  28  73 W3        29.97R                  
NORWOOD        FAIR      41  30  65 CALM      29.99R                  
MARSHFIELD     FAIR      39  30  70 VRB3      29.98R                  
PLYMOUTH       FAIR      35  31  85 W3        29.98R                  
TAUNTON        FAIR      37  31  78 CALM      29.99R                  
NEW BEDFORD    FAIR      36  31  82 CALM      29.99R                  
$$

MAZALL-211200-
CAPE COD AND THE ISLANDS
  
CITY           SKY/WX    TMP DP  RH WIND       PRES   REMARKS
FALMOUTH       NOT AVBL                                               
HYANNIS        FAIR      41  27  57 NW5       29.97R                  
CHATHAM        FAIR      42  33  70 CALM      29.98R                  
PROVINCETOWN   FAIR      44  34  67 NW12      29.99R                  
NANTUCKET      FAIR      44  31  60 NW12      29.98R                  
MARTHAS VNYRD  FAIR      42  31  64 NW7       29.99R                  
$$
 
MAZALL-211200-
CENTRAL AND WESTERN MASSACHUSETTS
  
CITY           SKY/WX    TMP DP  RH WIND       PRES   REMARKS
WORCESTER      FAIR      37  24  59 W12       29.96R WCI  29          
FITCHBURG      FAIR      40  25  55 NW8       29.97R                  
ORANGE         FAIR      33  29  85 MISG      29.98R                  
SPRINGFIELD    FAIR      36  28  74 SE3       29.98R                  
WESTFIELD      FAIR      36  28  73 CALM      30.00R                  
NORTH ADAMS    FAIR      32  27  81 CALM      30.00S                  
PITTSFIELD     FAIR      34  26  72 NW5       29.97R WCI  30          
$$
 
RIZALL-211200-
RHODE ISLAND
  
CITY           SKY/WX    TMP DP  RH WIND       PRES   REMARKS
PROVIDENCE     PTSUNNY   39  28  64 W7        30.00R                  
NEWPORT        FAIR      40  28  62 W3        30.00R                  
BLOCK ISLAND   FAIR      41  29  62 NW8       30.03R                  
SMITHFIELD     FAIR      37  28  70 W7        29.99R WCI  32          
WESTERLY       FAIR      39  29  67 CALM      30.01R                  
$$
 
CTZALL-211200-
CONNECTICUT
  
CITY           SKY/WX    TMP DP  RH WIND       PRES   REMARKS
BRADLEY INTL   PTSUNNY   41  28  60 CALM      30.01R                  
HARTFORD       FAIR      41  28  60 CALM      30.03R                  
PLAINVILLE     FAIR      36  31  81 SE3       30.02R                  
BRIDGEPORT     FAIR      41  30  65 SW3       30.05R                  
DANBURY        FAIR      34  28  79 CALM      30.05R                  
GROTON         FAIR      41  29  62 NW5       30.02R                  
NEW HAVEN      FAIR      44  28  53 CALM      30.04R                  
CHESTER        FAIR      39  27  60 W6        30.02R                  
MERIDEN        FAIR      37  27  67 CALM      30.03R                  
WILLIMANTIC    FAIR      36  28  73 S3        30.01R                  
OXFORD         FAIR      35  26  69 N3        30.02R                  
$$

MEZ002-015-021-024-NHZ003-005-008-011-012-014-VTZ005-008-211200-
NORTHERN NEW ENGLAND
  
CITY           SKY/WX    TMP DP  RH WIND       PRES   REMARKS
PORTLAND ME    FAIR      38  31  76 W5        29.92S                  
BANGOR ME      FAIR      38  32  79 SW6       29.88R                  
CONCORD NH     FAIR      31  28  89 CALM      29.96R                  
MANCHESTER NH  FAIR      37  28  70 CALM      29.95R                  
NASHUA NH      FAIR      35  32  88 NW3       29.97R                  
PORTSMOUTH NH  MOSUNNY   41  28  60 W8        29.94R                  
JAFFREY NH     FAIR      35  25  66 S6        29.95R WCI  30          
KEENE NH       FAIR      30  28  92 CALM      29.98R                  
BURLINGTON VT  PTSUNNY   36  28  73 S6        29.95R WCI  31          
MT. WASHINGTON FOG       18  18 100 NW17        N/A  VSB 1/16WCI   2  
$$

NYZ052-076-211200-
EASTERN NEW YORK
  
CITY           SKY/WX    TMP DP  RH WIND       PRES   REMARKS
ALBANY         FAIR      35  27  72 CALM      30.03R                  
NEW YORK CITY  MOCLDY    44  25  47 NW9       30.06R                  
$$
 
ANZALL-211200-
MARINE OBSERVATIONS
  
STATION/POSITION TIME  TEMP    WIND        PRES    VSBY  WAVE
                       AIR SEA DIR/SP/G                  HT/PER
                 (UTC) (F)     (DEG/KT/KT) (MB)    (MI)  (FT/S)
BOSTON BUOY      1040   43     280/ 12/ 14 1014.6R
BUZZARDS BAY     1000   43     320/ 11/ 12 1015.5R
NANTUCKET SOUND  1050   44 47  310/ 14/ 16 1014.7R         1/ 2
MASS BAY-STELLWA 0904   44 46  300/ 12/ 14 1013.6F  1 7/8  2/ 8
ISLE OF SHOALS   1000   41     300/ 10/ 11 1012.6R
S OF BLOCK IS    1056      44                N/A           3/ 8
$$

......................KEY.........................
  SKY/WX - SKY CONDITION/PRESENT WEATHER
  TMP    - TEMPERATURE IN FAHRENHEIT
  DWPT   - DEWPOINT IN FAHRENHEIT
  RH     - RELATIVE HUMIDITY IN PERCENT
  WIND   - DIRECTION AND SPEED IN MPH
  PRES   - MEAN SEA LEVEL PRESSURE IN INCHES OF HG
  WCI    - WIND CHILL INDEX
  VSB    - VISIBILITY IN MILES
  HX     - HEAT INDEX
  TC     - TEMPERATURE IN CELSIUS
  VRB    - VARIABLE WIND DIRECTION
  N/A    - NOT AVAILABLE
  
      

Other recent Regional Weather Roundups

Mon Apr 22, 8:10am EDT

Mon Apr 22, 7:10am EDT

Mon Apr 22, 6:10am EDT

Mon Apr 22, 5:10am EDT

Mon Apr 22, 4:10am EDT

Mon Apr 22, 3:10am EDT

Mon Apr 22, 2:10am EDT

Mon Apr 22, 1:10am EDT

Mon Apr 22, 12:10am EDT

Sun Apr 21, 11:10pm EDT

Sun Apr 21, 10:10pm EDT

Sun Apr 21, 9:10pm EDT

Sun Apr 21, 8:10pm EDT

Sun Apr 21, 7:10pm EDT

Sun Apr 21, 6:10pm EDT

Sun Apr 21, 5:10pm EDT

Sun Apr 21, 4:10pm EDT

Sun Apr 21, 3:10pm EDT

Sun Apr 21, 2:10pm EDT

Sun Apr 21, 1:10pm EDT

Sun Apr 21, 12:10pm EDT

Sun Apr 21, 11:10am EDT

Sun Apr 21, 10:10am EDT

Sun Apr 21, 9:10am EDT

Sun Apr 21, 8:10am EDT

Sun Apr 21, 6:10am EDT

Sun Apr 21, 5:10am EDT

Sun Apr 21, 4:10am EDT

Sun Apr 21, 3:10am EDT

Sun Apr 21, 2:10am EDT

Sun Apr 21, 1:10am EDT

Sun Apr 21, 12:10am EDT

Sat Apr 20, 11:10pm EDT

Sat Apr 20, 10:10pm EDT

Sat Apr 20, 9:10pm EDT

Sat Apr 20, 8:10pm EDT

Sat Apr 20, 7:10pm EDT

Sat Apr 20, 6:10pm EDT

Sat Apr 20, 5:10pm EDT

Sat Apr 20, 4:10pm EDT

Sat Apr 20, 3:10pm EDT

Sat Apr 20, 2:10pm EDT

Sat Apr 20, 1:10pm EDT

Sat Apr 20, 12:10pm EDT

Sat Apr 20, 11:10am EDT

Sat Apr 20, 10:10am EDT

Sat Apr 20, 9:10am EDT

Sat Apr 20, 8:10am EDT

Sat Apr 20, 7:10am EDT

Sat Apr 20, 6:10am EDT

Sat Apr 20, 5:10am EDT

Sat Apr 20, 4:10am EDT

Sat Apr 20, 3:10am EDT

Sat Apr 20, 2:10am EDT

Sat Apr 20, 1:10am EDT

Sat Apr 20, 12:10am EDT

Fri Apr 19, 11:10pm EDT

Fri Apr 19, 10:10pm EDT

Fri Apr 19, 9:10pm EDT

Fri Apr 19, 8:10pm EDT

Fri Apr 19, 7:10pm EDT

Fri Apr 19, 6:10pm EDT

Fri Apr 19, 5:10pm EDT

Fri Apr 19, 4:10pm EDT

Fri Apr 19, 3:10pm EDT

Fri Apr 19, 2:10pm EDT

Fri Apr 19, 1:10pm EDT

Fri Apr 19, 12:10pm EDT

Fri Apr 19, 11:10am EDT

Fri Apr 19, 10:10am EDT

Fri Apr 19, 9:10am EDT

Fri Apr 19, 8:10am EDT

Fri Apr 19, 7:10am EDT

Fri Apr 19, 6:10am EDT

Fri Apr 19, 5:10am EDT

Fri Apr 19, 4:10am EDT

Fri Apr 19, 3:10am EDT

Fri Apr 19, 2:10am EDT

Fri Apr 19, 1:10am EDT

Fri Apr 19, 12:10am EDT

Thu Apr 18, 11:10pm EDT

Thu Apr 18, 10:10pm EDT

Thu Apr 18, 9:10pm EDT

Thu Apr 18, 8:10pm EDT

Thu Apr 18, 7:10pm EDT

Thu Apr 18, 6:10pm EDT

Thu Apr 18, 5:10pm EDT

Thu Apr 18, 4:10pm EDT

Thu Apr 18, 3:10pm EDT

Thu Apr 18, 2:10pm EDT

Thu Apr 18, 1:10pm EDT

Thu Apr 18, 12:10pm EDT

Thu Apr 18, 11:10am EDT

Thu Apr 18, 10:10am EDT

Thu Apr 18, 9:10am EDT

Thu Apr 18, 8:10am EDT

Thu Apr 18, 7:10am EDT

Thu Apr 18, 6:10am EDT

Thu Apr 18, 5:10am EDT

Thu Apr 18, 4:10am EDT

Thu Apr 18, 3:10am EDT

Thu Apr 18, 2:10am EDT

Thu Apr 18, 1:10am EDT

Thu Apr 18, 12:10am EDT

Wed Apr 17, 11:10pm EDT

Wed Apr 17, 10:10pm EDT

Wed Apr 17, 9:10pm EDT

Wed Apr 17, 8:10pm EDT

Wed Apr 17, 7:10pm EDT

Wed Apr 17, 6:10pm EDT

Wed Apr 17, 5:10pm EDT

Wed Apr 17, 4:10pm EDT

Wed Apr 17, 3:10pm EDT

Wed Apr 17, 2:10pm EDT

Wed Apr 17, 1:10pm EDT

Wed Apr 17, 12:10pm EDT

Wed Apr 17, 11:10am EDT

Wed Apr 17, 10:10am EDT

Wed Apr 17, 9:10am EDT

Wed Apr 17, 8:10am EDT

Wed Apr 17, 7:10am EDT

Wed Apr 17, 6:10am EDT

Wed Apr 17, 5:10am EDT

Wed Apr 17, 4:10am EDT

Wed Apr 17, 3:10am EDT

Wed Apr 17, 2:10am EDT

Wed Apr 17, 1:10am EDT

Wed Apr 17, 12:10am EDT

Tue Apr 16, 11:10pm EDT

Tue Apr 16, 10:10pm EDT

Tue Apr 16, 9:10pm EDT

Tue Apr 16, 8:10pm EDT

Tue Apr 16, 7:10pm EDT

Tue Apr 16, 6:10pm EDT

Tue Apr 16, 5:10pm EDT

Tue Apr 16, 4:10pm EDT

Tue Apr 16, 3:10pm EDT

Tue Apr 16, 2:10pm EDT

Tue Apr 16, 1:10pm EDT

Tue Apr 16, 12:10pm EDT

Tue Apr 16, 11:10am EDT

Tue Apr 16, 10:10am EDT

Tue Apr 16, 9:10am EDT

Tue Apr 16, 8:10am EDT

Tue Apr 16, 7:10am EDT

Tue Apr 16, 6:10am EDT

Tue Apr 16, 5:10am EDT

Tue Apr 16, 4:10am EDT

Tue Apr 16, 3:10am EDT

Tue Apr 16, 2:10am EDT

Tue Apr 16, 1:10am EDT

Tue Apr 16, 12:10am EDT

Mon Apr 15, 11:10pm EDT

Mon Apr 15, 10:10pm EDT

Mon Apr 15, 9:10pm EDT

Mon Apr 15, 8:10pm EDT

Mon Apr 15, 7:10pm EDT

Mon Apr 15, 6:10pm EDT

Mon Apr 15, 5:10pm EDT

Mon Apr 15, 4:10pm EDT

Mon Apr 15, 3:10pm EDT

Mon Apr 15, 2:10pm EDT

Mon Apr 15, 1:10pm EDT

Mon Apr 15, 12:10pm EDT

Mon Apr 15, 11:10am EDT

Mon Apr 15, 10:10am EDT

Mon Apr 15, 9:10am EDT